STARLINK-5018 (53929 NORAD) Tracking and Keplerian Element Data

This shows tracking and keplerian element data for the satellite.

Feedback or suggestion? Click here.




ElementValue
Catalog53929
NameSTARLINK-5018
Epoch Orbit946
Epoch Day325.33334491
Epoch Year2022
RAAN329.0718
Inclination53.214
Eccentricity0.000487
Argument of Perigee326.5893
Mean Anonmoly255.276
Mean Motion15.73167496
Decay Rate0.00048558
L11 53929U 22119AV 22325.33334491 .00048558 00000+0 34870-3 0 9991
L22 53929 53.2140 329.0718 0004870 326.5893 255.2760 15.73167496 9465



Live tracking and technical data element details for STARLINK-5018 (NORAD 53929). STARLINK-5018 can be tracked NOW for your location showing map with azimuth and elevation plus other details from your city location.







IsCatalogInMostPopularTable: catalog: 53929, numindb: 1
Update: records affected: 1



GetName: 53929 STARLINK-5018

Hit Count: updated at: Fri, 09 Dec 2022 18:36:05 GMT